owner,sensor,date,latitude,longitude,vertical_datum,sea_water_practical_salinity,qcFlag 
DISL,ioos:station:DISL:PPTA:1,2013-12-01T00:00:00Z,30.2791,-87.5561,1.226,32.56,1111122 
DISL,ioos:station:DISL:PPTA:1,2013-12-01T00:30:00Z,30.2791,-87.5561,1.232,32.62,1111122 
DISL,ioos:station:DISL:PPTA:1,2013-12-01T01:00:00Z,30.2791,-87.5561,1.234,32.54,1111122 
DISL,ioos:station:DISL:PPTA:1,2013-12-01T01:30:00Z,30.2791,-87.5561,1.246,32.62,1111122 
DISL,ioos:station:DISL:PPTA:1,2013-12-01T02:00:00Z,30.2791,-87.5561,1.236,32.64,1111122 
DISL,ioos:station:DISL:PPTA:1,2013-12-01T02:30:00Z,30.2791,-87.5561,1.23,32.66,1111122 
DISL,ioos:station:DISL:PPTA:1,2013-12-01T03:00:00Z,30.2791,-87.5561,1.225,32.64,1111122 
DISL,ioos:station:DISL:PPTA:1,2013-12-01T03:30:00Z,30.2791,-87.5561,1.212,32.64,1111122 
DISL,ioos:station:DISL:PPTA:1,2013-12-01T04:00:00Z,30.2791,-87.5561,1.198,32.63,1111122 
DISL,ioos:station:DISL:PPTA:1,2013-12-01T04:30:00Z,30.2791,-87.5561,1.171,32.52,1111122 
DISL,ioos:station:DISL:PPTA:1,2013-12-01T05:00:00Z,30.2791,-87.5561,1.158,31.19,1111122 
DISL,ioos:station:DISL:PPTA:1,2013-12-01T05:30:00Z,30.2791,-87.5561,1.123,31.35,1111122 
DISL,ioos:station:DISL:PPTA:1,2013-12-01T06:00:00Z,30.2791,-87.5561,1.092,32.16,1111122 
DISL,ioos:station:DISL:PPTA:1,2013-12-01T06:30:00Z,30.2791,-87.5561,1.076,31.81,1111122 
DISL,ioos:station:DISL:PPTA:1,2013-12-01T07:00:00Z,30.2791,-87.5561,1.068,31.85,1111122 
DISL,ioos:station:DISL:PPTA:1,2013-12-01T07:30:00Z,30.2791,-87.5561,1.057,31.47,1111122 
DISL,ioos:station:DISL:PPTA:1,2013-12-01T08:00:00Z,30.2791,-87.5561,1.043,30.86,1111122 
DISL,ioos:station:DISL:PPTA:1,2013-12-01T08:30:00Z,30.2791,-87.5561,1.027,30.05,1111122 
DISL,ioos:station:DISL:PPTA:1,2013-12-01T09:00:00Z,30.2791,-87.5561,1.003,29.72,1111122 
DISL,ioos:station:DISL:PPTA:1,2013-12-01T09:30:00Z,30.2791,-87.5561,1.007,29.03,1111122 
DISL,ioos:station:DISL:PPTA:1,2013-12-01T10:00:00Z,30.2791,-87.5561,0.992,28.5,1111122 
DISL,ioos:station:DISL:PPTA:1,2013-12-01T10:30:00Z,30.2791,-87.5561,0.991,28.14,1111122 
DISL,ioos:station:DISL:PPTA:1,2013-12-01T11:00:00Z,30.2791,-87.5561,0.983,27.96,1111122 
DISL,ioos:station:DISL:PPTA:1,2013-12-01T11:30:00Z,30.2791,-87.5561,0.975,28.03,1111122 
DISL,ioos:station:DISL:PPTA:1,2013-12-01T12:00:00Z,30.2791,-87.5561,0.977,27.58,1111122 
DISL,ioos:station:DISL:PPTA:1,2013-12-01T12:30:00Z,30.2791,-87.5561,0.97,27.22,1111122 
DISL,ioos:station:DISL:PPTA:1,2013-12-01T13:00:00Z,30.2791,-87.5561,0.987,26.85,1111122 
DISL,ioos:station:DISL:PPTA:1,2013-12-01T13:30:00Z,30.2791,-87.5561,0.99,26.86,1111122 
DISL,ioos:station:DISL:PPTA:1,2013-12-01T14:00:00Z,30.2791,-87.5561,1.025,26.13,1111122 
DISL,ioos:station:DISL:PPTA:1,2013-12-01T14:30:00Z,30.2791,-87.5561,1.035,24.99,1111122 
DISL,ioos:station:DISL:PPTA:1,2013-12-01T15:00:00Z,30.2791,-87.5561,1.033,26.65,1111122 
DISL,ioos:station:DISL:PPTA:1,2013-12-01T15:30:00Z,30.2791,-87.5561,1.051,27.25,1111122 
DISL,ioos:station:DISL:PPTA:1,2013-12-01T16:00:00Z,30.2791,-87.5561,1.057,26.51,1111122 
DISL,ioos:station:DISL:PPTA:1,2013-12-01T16:30:00Z,30.2791,-87.5561,1.064,29.65,1111122 
DISL,ioos:station:DISL:PPTA:1,2013-12-01T17:00:00Z,30.2791,-87.5561,1.062,31.13,1111122 
DISL,ioos:station:DISL:PPTA:1,2013-12-01T17:30:00Z,30.2791,-87.5561,1.092,31.09,1111122 
DISL,ioos:station:DISL:PPTA:1,2013-12-01T18:00:00Z,30.2791,-87.5561,1.116,31.96,1111122 
DISL,ioos:station:DISL:PPTA:1,2013-12-01T18:30:00Z,30.2791,-87.5561,1.13,32.1,1111122 
DISL,ioos:station:DISL:PPTA:1,2013-12-01T19:00:00Z,30.2791,-87.5561,1.15,31.85,1111122 
DISL,ioos:station:DISL:PPTA:1,2013-12-01T19:30:00Z,30.2791,-87.5561,1.168,32.4,1111122 
DISL,ioos:station:DISL:PPTA:1,2013-12-01T20:00:00Z,30.2791,-87.5561,1.185,32.28,1111122 
DISL,ioos:station:DISL:PPTA:1,2013-12-01T20:30:00Z,30.2791,-87.5561,1.203,32.43,1111122 
DISL,ioos:station:DISL:PPTA:1,2013-12-01T21:00:00Z,30.2791,-87.5561,1.234,32.37,1111122 
DISL,ioos:station:DISL:PPTA:1,2013-12-01T21:30:00Z,30.2791,-87.5561,1.264,32.43,1111122 
DISL,ioos:station:DISL:PPTA:1,2013-12-01T22:00:00Z,30.2791,-87.5561,1.279,32.37,1111122 
DISL,ioos:station:DISL:PPTA:1,2013-12-01T22:30:00Z,30.2791,-87.5561,1.301,32.5,1111122 
DISL,ioos:station:DISL:PPTA:1,2013-12-01T23:00:00Z,30.2791,-87.5561,1.316,32.42,1111122 
DISL,ioos:station:DISL:PPTA:1,2013-12-01T23:30:00Z,30.2791,-87.5561,1.333,32.52,1111122 
DISL,ioos:station:DISL:PPTA:1,2013-12-02T00:00:00Z,30.2791,-87.5561,1.358,32.64,1111122 
DISL,ioos:station:DISL:PPTA:1,2013-12-02T00:30:00Z,30.2791,-87.5561,1.372,32.59,1111122 
DISL,ioos:station:DISL:PPTA:1,2013-12-02T01:00:00Z,30.2791,-87.5561,1.383,32.6,1111122 
DISL,ioos:station:DISL:PPTA:1,2013-12-02T01:30:00Z,30.2791,-87.5561,1.37,32.76,1111122 
DISL,ioos:station:DISL:PPTA:1,2013-12-02T02:00:00Z,30.2791,-87.5561,1.375,32.64,1111122 
DISL,ioos:station:DISL:PPTA:1,2013-12-02T02:30:00Z,30.2791,-87.5561,1.39,32.69,1111122 
DISL,ioos:station:DISL:PPTA:1,2013-12-02T03:00:00Z,30.2791,-87.5561,1.382,32.84,1111122 
DISL,ioos:station:DISL:PPTA:1,2013-12-02T03:30:00Z,30.2791,-87.5561,1.38,32.82,1111122 
DISL,ioos:station:DISL:PPTA:1,2013-12-02T04:00:00Z,30.2791,-87.5561,1.37,32.86,1111122 
DISL,ioos:station:DISL:PPTA:1,2013-12-02T04:30:00Z,30.2791,-87.5561,1.347,32.87,1111122 
DISL,ioos:station:DISL:PPTA:1,2013-12-02T05:00:00Z,30.2791,-87.5561,1.313,32.86,1111122 
DISL,ioos:station:DISL:PPTA:1,2013-12-02T05:30:00Z,30.2791,-87.5561,1.291,32.73,1111122 
DISL,ioos:station:DISL:PPTA:1,2013-12-02T06:00:00Z,30.2791,-87.5561,1.257,32.73,1111122 
DISL,ioos:station:DISL:PPTA:1,2013-12-02T06:30:00Z,30.2791,-87.5561,1.223,32.53,1111122 
DISL,ioos:station:DISL:PPTA:1,2013-12-02T07:00:00Z,30.2791,-87.5561,1.215,32.18,1111122 
DISL,ioos:station:DISL:PPTA:1,2013-12-02T07:30:00Z,30.2791,-87.5561,1.193,32.11,1111122 
DISL,ioos:station:DISL:PPTA:1,2013-12-02T08:00:00Z,30.2791,-87.5561,1.188,32.09,1111122 
DISL,ioos:station:DISL:PPTA:1,2013-12-02T08:30:00Z,30.2791,-87.5561,1.158,32.18,1111122 
DISL,ioos:station:DISL:PPTA:1,2013-12-02T09:00:00Z,30.2791,-87.5561,1.153,32.15,1111122 
DISL,ioos:station:DISL:PPTA:1,2013-12-02T09:30:00Z,30.2791,-87.5561,1.129,31.43,1111122 
DISL,ioos:station:DISL:PPTA:1,2013-12-02T10:00:00Z,30.2791,-87.5561,1.1,30.34,1111122 
DISL,ioos:station:DISL:PPTA:1,2013-12-02T10:30:00Z,30.2791,-87.5561,1.099,30.04,1111122 
DISL,ioos:station:DISL:PPTA:1,2013-12-02T11:00:00Z,30.2791,-87.5561,1.093,29.41,1111122 
DISL,ioos:station:DISL:PPTA:1,2013-12-02T11:30:00Z,30.2791,-87.5561,1.071,28.66,1111122 
DISL,ioos:station:DISL:PPTA:1,2013-12-02T12:00:00Z,30.2791,-87.5561,1.06,28.64,1111122 
DISL,ioos:station:DISL:PPTA:1,2013-12-02T12:30:00Z,30.2791,-87.5561,1.043,27.87,1111122 
DISL,ioos:station:DISL:PPTA:1,2013-12-02T13:00:00Z,30.2791,-87.5561,1.051,27.51,1111122 
DISL,ioos:station:DISL:PPTA:1,2013-12-02T13:30:00Z,30.2791,-87.5561,1.033,27.37,1111122 
DISL,ioos:station:DISL:PPTA:1,2013-12-02T14:00:00Z,30.2791,-87.5561,1.037,26.96,1111122 
DISL,ioos:station:DISL:PPTA:1,2013-12-02T14:30:00Z,30.2791,-87.5561,1.057,26.78,1111122 
DISL,ioos:station:DISL:PPTA:1,2013-12-02T15:00:00Z,30.2791,-87.5561,1.059,26.61,1111122 
DISL,ioos:station:DISL:PPTA:1,2013-12-02T15:30:00Z,30.2791,-87.5561,1.074,26.71,1111122 
DISL,ioos:station:DISL:PPTA:1,2013-12-02T16:00:00Z,30.2791,-87.5561,1.08,25.5,1111122 
DISL,ioos:station:DISL:PPTA:1,2013-12-02T16:30:00Z,30.2791,-87.5561,1.096,27.85,1111122 
DISL,ioos:station:DISL:PPTA:1,2013-12-02T17:00:00Z,30.2791,-87.5561,1.126,26.95,1111122 
DISL,ioos:station:DISL:PPTA:1,2013-12-02T17:30:00Z,30.2791,-87.5561,1.122,26.61,1111122 
DISL,ioos:station:DISL:PPTA:1,2013-12-02T18:00:00Z,30.2791,-87.5561,1.133,28.68,1111122 
DISL,ioos:station:DISL:PPTA:1,2013-12-02T18:30:00Z,30.2791,-87.5561,1.153,28.87,1111122 
DISL,ioos:station:DISL:PPTA:1,2013-12-02T19:00:00Z,30.2791,-87.5561,1.141,30.81,1111122 
DISL,ioos:station:DISL:PPTA:1,2013-12-02T19:30:00Z,30.2791,-87.5561,1.178,30.7,1111122 
DISL,ioos:station:DISL:PPTA:1,2013-12-02T20:00:00Z,30.2791,-87.5561,1.191,31.52,1111122 
DISL,ioos:station:DISL:PPTA:1,2013-12-02T20:30:00Z,30.2791,-87.5561,1.224,30.83,1111122 
DISL,ioos:station:DISL:PPTA:1,2013-12-02T21:00:00Z,30.2791,-87.5561,1.254,31.48,1111122 
DISL,ioos:station:DISL:PPTA:1,2013-12-02T21:30:00Z,30.2791,-87.5561,1.271,31.41,1111122 
DISL,ioos:station:DISL:PPTA:1,2013-12-02T22:00:00Z,30.2791,-87.5561,1.301,31.52,1111122 
DISL,ioos:station:DISL:PPTA:1,2013-12-02T22:30:00Z,30.2791,-87.5561,1.329,31.55,1111122 
DISL,ioos:station:DISL:PPTA:1,2013-12-02T23:00:00Z,30.2791,-87.5561,1.356,31.62,1111122 
DISL,ioos:station:DISL:PPTA:1,2013-12-02T23:30:00Z,30.2791,-87.5561,1.384,31.65,1111122 
DISL,ioos:station:DISL:PPTA:1,2013-12-03T00:00:00Z,30.2791,-87.5561,1.406,31.69,1111122 
DISL,ioos:station:DISL:PPTA:1,2013-12-03T00:30:00Z,30.2791,-87.5561,1.446,31.69,1111122 
DISL,ioos:station:DISL:PPTA:1,2013-12-03T01:00:00Z,30.2791,-87.5561,1.464,31.7,1111122 
DISL,ioos:station:DISL:PPTA:1,2013-12-03T01:30:00Z,30.2791,-87.5561,1.466,31.59,1111122 
DISL,ioos:station:DISL:PPTA:1,2013-12-03T02:00:00Z,30.2791,-87.5561,1.474,31.65,1111122 
DISL,ioos:station:DISL:PPTA:1,2013-12-03T02:30:00Z,30.2791,-87.5561,1.477,31.63,1111122 
DISL,ioos:station:DISL:PPTA:1,2013-12-03T03:00:00Z,30.2791,-87.5561,1.489,31.68,1111122 
DISL,ioos:station:DISL:PPTA:1,2013-12-03T03:30:00Z,30.2791,-87.5561,1.501,31.67,1111122 
DISL,ioos:station:DISL:PPTA:1,2013-12-03T04:00:00Z,30.2791,-87.5561,1.498,31.63,1111122 
DISL,ioos:station:DISL:PPTA:1,2013-12-03T04:30:00Z,30.2791,-87.5561,1.486,31.68,1111122 
DISL,ioos:station:DISL:PPTA:1,2013-12-03T05:00:00Z,30.2791,-87.5561,1.481,31.67,1111122 
DISL,ioos:station:DISL:PPTA:1,2013-12-03T05:30:00Z,30.2791,-87.5561,1.457,31.7,1111122 
DISL,ioos:station:DISL:PPTA:1,2013-12-03T06:00:00Z,30.2791,-87.5561,1.438,31.75,1111122 
DISL,ioos:station:DISL:PPTA:1,2013-12-03T06:30:00Z,30.2791,-87.5561,1.414,31.72,1111122 
DISL,ioos:station:DISL:PPTA:1,2013-12-03T07:00:00Z,30.2791,-87.5561,1.375,31.69,1111122 
DISL,ioos:station:DISL:PPTA:1,2013-12-03T07:30:00Z,30.2791,-87.5561,1.36,31.7,1111122 
DISL,ioos:station:DISL:PPTA:1,2013-12-03T08:00:00Z,30.2791,-87.5561,1.353,31.5,1111122 
DISL,ioos:station:DISL:PPTA:1,2013-12-03T08:30:00Z,30.2791,-87.5561,1.32,31.42,1111122 
DISL,ioos:station:DISL:PPTA:1,2013-12-03T09:00:00Z,30.2791,-87.5561,1.317,31.3,1111122 
DISL,ioos:station:DISL:PPTA:1,2013-12-03T09:30:00Z,30.2791,-87.5561,1.289,31.2,1111122 
DISL,ioos:station:DISL:PPTA:1,2013-12-03T10:00:00Z,30.2791,-87.5561,1.269,31.18,1111122 
DISL,ioos:station:DISL:PPTA:1,2013-12-03T10:30:00Z,30.2791,-87.5561,1.26,31.07,1111122 
DISL,ioos:station:DISL:PPTA:1,2013-12-03T11:00:00Z,30.2791,-87.5561,1.246,30.56,1111122 
DISL,ioos:station:DISL:PPTA:1,2013-12-03T11:30:00Z,30.2791,-87.5561,1.237,30.09,1111122 
DISL,ioos:station:DISL:PPTA:1,2013-12-03T12:00:00Z,30.2791,-87.5561,1.224,29.43,1111122 
DISL,ioos:station:DISL:PPTA:1,2013-12-03T12:30:00Z,30.2791,-87.5561,1.209,29.01,1111122 
DISL,ioos:station:DISL:PPTA:1,2013-12-03T13:00:00Z,30.2791,-87.5561,1.205,28.25,1111122 
DISL,ioos:station:DISL:PPTA:1,2013-12-03T13:30:00Z,30.2791,-87.5561,1.191,28.08,1111122 
DISL,ioos:station:DISL:PPTA:1,2013-12-03T14:00:00Z,30.2791,-87.5561,1.185,27.9,1111122 
DISL,ioos:station:DISL:PPTA:1,2013-12-03T14:30:00Z,30.2791,-87.5561,1.171,27.84,1111122 
DISL,ioos:station:DISL:PPTA:1,2013-12-03T15:00:00Z,30.2791,-87.5561,1.17,27.75,1111122 
DISL,ioos:station:DISL:PPTA:1,2013-12-03T15:30:00Z,30.2791,-87.5561,1.163,27.46,1111122 
DISL,ioos:station:DISL:PPTA:1,2013-12-03T16:00:00Z,30.2791,-87.5561,1.186,27.02,1111122 
DISL,ioos:station:DISL:PPTA:1,2013-12-03T16:30:00Z,30.2791,-87.5561,1.191,26.65,1111122 
DISL,ioos:station:DISL:PPTA:1,2013-12-03T17:00:00Z,30.2791,-87.5561,1.191,26.3,1111122 
DISL,ioos:station:DISL:PPTA:1,2013-12-03T17:30:00Z,30.2791,-87.5561,1.196,26.99,1111122 
DISL,ioos:station:DISL:PPTA:1,2013-12-03T18:00:00Z,30.2791,-87.5561,1.208,27.98,1111122 
DISL,ioos:station:DISL:PPTA:1,2013-12-03T18:30:00Z,30.2791,-87.5561,1.224,28.3,1111122 
DISL,ioos:station:DISL:PPTA:1,2013-12-03T19:00:00Z,30.2791,-87.5561,1.22,27.77,1111122 
DISL,ioos:station:DISL:PPTA:1,2013-12-03T19:30:00Z,30.2791,-87.5561,1.235,29.53,1111122 
DISL,ioos:station:DISL:PPTA:1,2013-12-03T20:00:00Z,30.2791,-87.5561,1.24,30.73,1111122 
DISL,ioos:station:DISL:PPTA:1,2013-12-03T20:30:00Z,30.2791,-87.5561,1.253,30.89,1111122 
DISL,ioos:station:DISL:PPTA:1,2013-12-03T21:00:00Z,30.2791,-87.5561,1.276,32.05,1111122 
DISL,ioos:station:DISL:PPTA:1,2013-12-03T21:30:00Z,30.2791,-87.5561,1.294,31.45,1111122 
DISL,ioos:station:DISL:PPTA:1,2013-12-03T22:00:00Z,30.2791,-87.5561,1.322,32.16,1111122 
DISL,ioos:station:DISL:PPTA:1,2013-12-03T22:30:00Z,30.2791,-87.5561,1.354,32.36,1111122 
DISL,ioos:station:DISL:PPTA:1,2013-12-03T23:00:00Z,30.2791,-87.5561,1.374,32.33,1111122 
DISL,ioos:station:DISL:PPTA:1,2013-12-03T23:30:00Z,30.2791,-87.5561,1.399,32.26,1111122 
DISL,ioos:station:DISL:PPTA:1,2013-12-04T00:00:00Z,30.2791,-87.5561,1.426,32.18,1111122 
DISL,ioos:station:DISL:PPTA:1,2013-12-04T00:30:00Z,30.2791,-87.5561,1.453,32.29,1111122 
DISL,ioos:station:DISL:PPTA:1,2013-12-04T01:00:00Z,30.2791,-87.5561,1.476,32.19,1111122 
DISL,ioos:station:DISL:PPTA:1,2013-12-04T01:30:00Z,30.2791,-87.5561,1.49,32.11,1111122 
DISL,ioos:station:DISL:PPTA:1,2013-12-04T02:00:00Z,30.2791,-87.5561,1.518,32.23,1111122 
DISL,ioos:station:DISL:PPTA:1,2013-12-04T02:30:00Z,30.2791,-87.5561,1.516,32.05,1111122 
DISL,ioos:station:DISL:PPTA:1,2013-12-04T03:00:00Z,30.2791,-87.5561,1.524,32.19,1111122 
DISL,ioos:station:DISL:PPTA:1,2013-12-04T03:30:00Z,30.2791,-87.5561,1.516,32.01,1111122 
DISL,ioos:station:DISL:PPTA:1,2013-12-04T04:00:00Z,30.2791,-87.5561,1.519,32.04,1111122 
DISL,ioos:station:DISL:PPTA:1,2013-12-04T04:30:00Z,30.2791,-87.5561,1.526,32.16,1111122 
DISL,ioos:station:DISL:PPTA:1,2013-12-04T05:00:00Z,30.2791,-87.5561,1.529,32.09,1111122 
DISL,ioos:station:DISL:PPTA:1,2013-12-04T05:30:00Z,30.2791,-87.5561,1.516,32.07,1111122 
DISL,ioos:station:DISL:PPTA:1,2013-12-04T06:00:00Z,30.2791,-87.5561,1.508,32.12,1111122 
DISL,ioos:station:DISL:PPTA:1,2013-12-04T06:30:00Z,30.2791,-87.5561,1.475,32.13,1111122 
DISL,ioos:station:DISL:PPTA:1,2013-12-04T07:00:00Z,30.2791,-87.5561,1.451,32.07,1111122 
DISL,ioos:station:DISL:PPTA:1,2013-12-04T07:30:00Z,30.2791,-87.5561,1.421,32.14,1111122 
DISL,ioos:station:DISL:PPTA:1,2013-12-04T08:00:00Z,30.2791,-87.5561,1.399,32.14,1111122 
DISL,ioos:station:DISL:PPTA:1,2013-12-04T08:30:00Z,30.2791,-87.5561,1.381,32.0,1111122 
DISL,ioos:station:DISL:PPTA:1,2013-12-04T09:00:00Z,30.2791,-87.5561,1.367,31.87,1111122 
DISL,ioos:station:DISL:PPTA:1,2013-12-04T09:30:00Z,30.2791,-87.5561,1.347,31.8,1111122 
DISL,ioos:station:DISL:PPTA:1,2013-12-04T10:00:00Z,30.2791,-87.5561,1.327,31.73,1111122 
DISL,ioos:station:DISL:PPTA:1,2013-12-04T10:30:00Z,30.2791,-87.5561,1.303,31.67,1111122 
DISL,ioos:station:DISL:PPTA:1,2013-12-04T11:00:00Z,30.2791,-87.5561,1.292,31.48,1111122 
DISL,ioos:station:DISL:PPTA:1,2013-12-04T11:30:00Z,30.2791,-87.5561,1.275,31.17,1111122 
DISL,ioos:station:DISL:PPTA:1,2013-12-04T12:00:00Z,30.2791,-87.5561,1.266,30.45,1111122 
DISL,ioos:station:DISL:PPTA:1,2013-12-04T12:30:00Z,30.2791,-87.5561,1.253,30.02,1111122 
DISL,ioos:station:DISL:PPTA:1,2013-12-04T13:00:00Z,30.2791,-87.5561,1.246,29.67,1111122 
DISL,ioos:station:DISL:PPTA:1,2013-12-04T13:30:00Z,30.2791,-87.5561,1.234,29.35,1111122 
DISL,ioos:station:DISL:PPTA:1,2013-12-04T14:00:00Z,30.2791,-87.5561,1.213,29.09,1111122 
DISL,ioos:station:DISL:PPTA:1,2013-12-04T14:30:00Z,30.2791,-87.5561,1.207,28.7,1111122 
DISL,ioos:station:DISL:PPTA:1,2013-12-04T15:00:00Z,30.2791,-87.5561,1.197,28.55,1111122 
DISL,ioos:station:DISL:PPTA:1,2013-12-04T15:30:00Z,30.2791,-87.5561,1.201,28.25,1111122 
DISL,ioos:station:DISL:PPTA:1,2013-12-04T16:00:00Z,30.2791,-87.5561,1.224,27.98,1111122 
DISL,ioos:station:DISL:PPTA:1,2013-12-04T16:30:00Z,30.2791,-87.5561,1.168,27.67,1111122 
DISL,ioos:station:DISL:PPTA:1,2013-12-04T17:00:00Z,30.2791,-87.5561,1.185,27.99,1111122 
DISL,ioos:station:DISL:PPTA:1,2013-12-04T17:30:00Z,30.2791,-87.5561,1.215,27.68,1111122 
DISL,ioos:station:DISL:PPTA:1,2013-12-04T18:00:00Z,30.2791,-87.5561,1.217,27.26,1111122 
DISL,ioos:station:DISL:PPTA:1,2013-12-04T18:30:00Z,30.2791,-87.5561,1.211,27.06,1111122 
DISL,ioos:station:DISL:PPTA:1,2013-12-04T19:00:00Z,30.2791,-87.5561,1.244,27.72,1111122 
DISL,ioos:station:DISL:PPTA:1,2013-12-04T19:30:00Z,30.2791,-87.5561,1.253,28.74,1111122 
DISL,ioos:station:DISL:PPTA:1,2013-12-04T20:00:00Z,30.2791,-87.5561,1.257,28.44,1111122 
DISL,ioos:station:DISL:PPTA:1,2013-12-04T20:30:00Z,30.2791,-87.5561,1.273,29.61,1111122 
DISL,ioos:station:DISL:PPTA:1,2013-12-04T21:00:00Z,30.2791,-87.5561,1.277,30.88,1111122 
DISL,ioos:station:DISL:PPTA:1,2013-12-04T21:30:00Z,30.2791,-87.5561,1.3,31.63,1111122 
DISL,ioos:station:DISL:PPTA:1,2013-12-04T22:00:00Z,30.2791,-87.5561,1.319,31.94,1111122 
DISL,ioos:station:DISL:PPTA:1,2013-12-04T22:30:00Z,30.2791,-87.5561,1.331,31.92,1111122 
DISL,ioos:station:DISL:PPTA:1,2013-12-04T23:00:00Z,30.2791,-87.5561,1.353,32.46,1111122 
DISL,ioos:station:DISL:PPTA:1,2013-12-04T23:30:00Z,30.2791,-87.5561,1.385,32.37,1111122 
DISL,ioos:station:DISL:PPTA:1,2013-12-05T00:00:00Z,30.2791,-87.5561,1.414,32.5,1111122 
DISL,ioos:station:DISL:PPTA:1,2013-12-05T00:30:00Z,30.2791,-87.5561,1.433,32.63,1111122 
DISL,ioos:station:DISL:PPTA:1,2013-12-05T01:00:00Z,30.2791,-87.5561,1.462,32.57,1111122 
DISL,ioos:station:DISL:PPTA:1,2013-12-05T01:30:00Z,30.2791,-87.5561,1.488,32.73,1111122 
DISL,ioos:station:DISL:PPTA:1,2013-12-05T02:00:00Z,30.2791,-87.5561,1.504,32.75,1111122 
DISL,ioos:station:DISL:PPTA:1,2013-12-05T02:30:00Z,30.2791,-87.5561,1.517,32.91,1111122 
DISL,ioos:station:DISL:PPTA:1,2013-12-05T03:00:00Z,30.2791,-87.5561,1.537,32.82,1111122 
DISL,ioos:station:DISL:PPTA:1,2013-12-05T03:30:00Z,30.2791,-87.5561,1.533,32.86,1111122 
DISL,ioos:station:DISL:PPTA:1,2013-12-05T04:00:00Z,30.2791,-87.5561,1.532,32.92,1111122 
DISL,ioos:station:DISL:PPTA:1,2013-12-05T04:30:00Z,30.2791,-87.5561,1.534,32.81,1111122 
DISL,ioos:station:DISL:PPTA:1,2013-12-05T05:00:00Z,30.2791,-87.5561,1.529,32.91,1111122 
DISL,ioos:station:DISL:PPTA:1,2013-12-05T05:30:00Z,30.2791,-87.5561,1.534,32.8,1111122 
DISL,ioos:station:DISL:PPTA:1,2013-12-05T06:00:00Z,30.2791,-87.5561,1.537,32.78,1111122 
DISL,ioos:station:DISL:PPTA:1,2013-12-05T06:30:00Z,30.2791,-87.5561,1.523,32.72,1111122 
DISL,ioos:station:DISL:PPTA:1,2013-12-05T07:00:00Z,30.2791,-87.5561,1.525,32.52,1111122 
DISL,ioos:station:DISL:PPTA:1,2013-12-05T07:30:00Z,30.2791,-87.5561,1.483,32.21,1111122 
DISL,ioos:station:DISL:PPTA:1,2013-12-05T08:00:00Z,30.2791,-87.5561,1.455,31.83,1111122 
DISL,ioos:station:DISL:PPTA:1,2013-12-05T08:30:00Z,30.2791,-87.5561,1.439,31.94,1111122 
DISL,ioos:station:DISL:PPTA:1,2013-12-05T09:00:00Z,30.2791,-87.5561,1.41,32.01,1111122 
DISL,ioos:station:DISL:PPTA:1,2013-12-05T09:30:00Z,30.2791,-87.5561,1.386,32.06,1111122 
DISL,ioos:station:DISL:PPTA:1,2013-12-05T10:00:00Z,30.2791,-87.5561,1.369,31.88,1111122 
DISL,ioos:station:DISL:PPTA:1,2013-12-05T10:30:00Z,30.2791,-87.5561,1.352,31.84,1111122 
DISL,ioos:station:DISL:PPTA:1,2013-12-05T11:00:00Z,30.2791,-87.5561,1.345,31.86,1111122 
DISL,ioos:station:DISL:PPTA:1,2013-12-05T11:30:00Z,30.2791,-87.5561,1.311,31.74,1111122 
DISL,ioos:station:DISL:PPTA:1,2013-12-05T12:00:00Z,30.2791,-87.5561,1.298,31.32,1111122 
DISL,ioos:station:DISL:PPTA:1,2013-12-05T12:30:00Z,30.2791,-87.5561,1.283,30.97,1111122 
DISL,ioos:station:DISL:PPTA:1,2013-12-05T13:00:00Z,30.2791,-87.5561,1.262,30.55,1111122 
DISL,ioos:station:DISL:PPTA:1,2013-12-05T13:30:00Z,30.2791,-87.5561,1.25,29.92,1111122 
DISL,ioos:station:DISL:PPTA:1,2013-12-05T14:00:00Z,30.2791,-87.5561,1.233,29.24,1111122 
DISL,ioos:station:DISL:PPTA:1,2013-12-05T14:30:00Z,30.2791,-87.5561,1.229,29.31,1111122 
DISL,ioos:station:DISL:PPTA:1,2013-12-05T15:00:00Z,30.2791,-87.5561,1.214,28.67,1111122 
DISL,ioos:station:DISL:PPTA:1,2013-12-05T15:30:00Z,30.2791,-87.5561,1.199,28.76,1111122 
DISL,ioos:station:DISL:PPTA:1,2013-12-05T16:00:00Z,30.2791,-87.5561,1.192,28.23,1111122 
DISL,ioos:station:DISL:PPTA:1,2013-12-05T16:30:00Z,30.2791,-87.5561,1.188,27.96,1111122 
DISL,ioos:station:DISL:PPTA:1,2013-12-05T17:00:00Z,30.2791,-87.5561,1.189,27.99,1111122 
DISL,ioos:station:DISL:PPTA:1,2013-12-05T17:30:00Z,30.2791,-87.5561,1.188,27.83,1111122 
DISL,ioos:station:DISL:PPTA:1,2013-12-05T18:00:00Z,30.2791,-87.5561,1.194,27.58,1111122 
DISL,ioos:station:DISL:PPTA:1,2013-12-05T18:30:00Z,30.2791,-87.5561,1.189,27.95,1111122 
DISL,ioos:station:DISL:PPTA:1,2013-12-05T19:00:00Z,30.2791,-87.5561,1.208,27.77,1111122 
DISL,ioos:station:DISL:PPTA:1,2013-12-05T19:30:00Z,30.2791,-87.5561,1.219,27.6,1111122 
DISL,ioos:station:DISL:PPTA:1,2013-12-05T20:00:00Z,30.2791,-87.5561,1.235,28.65,1111122 
DISL,ioos:station:DISL:PPTA:1,2013-12-05T20:30:00Z,30.2791,-87.5561,1.235,29.12,1111122 
DISL,ioos:station:DISL:PPTA:1,2013-12-05T21:00:00Z,30.2791,-87.5561,1.248,29.35,1111122 
DISL,ioos:station:DISL:PPTA:1,2013-12-05T21:30:00Z,30.2791,-87.5561,1.26,29.49,1111122 
DISL,ioos:station:DISL:PPTA:1,2013-12-05T22:00:00Z,30.2791,-87.5561,1.265,30.22,1111122 
DISL,ioos:station:DISL:PPTA:1,2013-12-05T22:30:00Z,30.2791,-87.5561,1.272,31.56,1111122 
DISL,ioos:station:DISL:PPTA:1,2013-12-05T23:00:00Z,30.2791,-87.5561,1.299,31.91,1111122 
DISL,ioos:station:DISL:PPTA:1,2013-12-05T23:30:00Z,30.2791,-87.5561,1.32,31.97,1111122 
DISL,ioos:station:DISL:PPTA:1,2013-12-06T00:00:00Z,30.2791,-87.5561,1.346,32.02,1111122 
DISL,ioos:station:DISL:PPTA:1,2013-12-06T00:30:00Z,30.2791,-87.5561,1.378,32.13,1111122 
DISL,ioos:station:DISL:PPTA:1,2013-12-06T01:00:00Z,30.2791,-87.5561,1.401,32.07,1111122 
DISL,ioos:station:DISL:PPTA:1,2013-12-06T01:30:00Z,30.2791,-87.5561,1.431,32.1,1111122 
DISL,ioos:station:DISL:PPTA:1,2013-12-06T02:00:00Z,30.2791,-87.5561,1.456,32.17,1111122 
DISL,ioos:station:DISL:PPTA:1,2013-12-06T02:30:00Z,30.2791,-87.5561,1.48,32.18,1111122 
DISL,ioos:station:DISL:PPTA:1,2013-12-06T03:00:00Z,30.2791,-87.5561,1.497,32.22,1111122 
DISL,ioos:station:DISL:PPTA:1,2013-12-06T03:30:00Z,30.2791,-87.5561,1.502,32.26,1111122 
DISL,ioos:station:DISL:PPTA:1,2013-12-06T04:00:00Z,30.2791,-87.5561,1.513,32.24,1111122 
DISL,ioos:station:DISL:PPTA:1,2013-12-06T04:30:00Z,30.2791,-87.5561,1.512,32.26,1111122 
DISL,ioos:station:DISL:PPTA:1,2013-12-06T05:00:00Z,30.2791,-87.5561,1.513,32.26,1111122 
DISL,ioos:station:DISL:PPTA:1,2013-12-06T05:30:00Z,30.2791,-87.5561,1.52,32.13,1111122 
DISL,ioos:station:DISL:PPTA:1,2013-12-06T06:00:00Z,30.2791,-87.5561,1.521,32.26,1111122 
DISL,ioos:station:DISL:PPTA:1,2013-12-06T06:30:00Z,30.2791,-87.5561,1.52,32.26,1111122 
DISL,ioos:station:DISL:PPTA:1,2013-12-06T07:00:00Z,30.2791,-87.5561,1.533,32.22,1111122 
DISL,ioos:station:DISL:PPTA:1,2013-12-06T07:30:00Z,30.2791,-87.5561,1.546,32.25,1111122 
DISL,ioos:station:DISL:PPTA:1,2013-12-06T08:00:00Z,30.2791,-87.5561,1.514,32.21,1111122 
DISL,ioos:station:DISL:PPTA:1,2013-12-06T08:30:00Z,30.2791,-87.5561,1.487,32.17,1111122 
DISL,ioos:station:DISL:PPTA:1,2013-12-06T09:00:00Z,30.2791,-87.5561,1.483,32.04,1111122 
DISL,ioos:station:DISL:PPTA:1,2013-12-06T09:30:00Z,30.2791,-87.5561,1.452,32.03,1111122 
DISL,ioos:station:DISL:PPTA:1,2013-12-06T10:00:00Z,30.2791,-87.5561,1.434,31.12,1111122 
DISL,ioos:station:DISL:PPTA:1,2013-12-06T10:30:00Z,30.2791,-87.5561,1.414,31.74,1111122 
DISL,ioos:station:DISL:PPTA:1,2013-12-06T11:00:00Z,30.2791,-87.5561,1.4,31.66,1111122 
DISL,ioos:station:DISL:PPTA:1,2013-12-06T11:30:00Z,30.2791,-87.5561,1.381,31.7,1111122 
DISL,ioos:station:DISL:PPTA:1,2013-12-06T12:00:00Z,30.2791,-87.5561,1.36,31.63,1111122 
DISL,ioos:station:DISL:PPTA:1,2013-12-06T12:30:00Z,30.2791,-87.5561,1.35,31.51,1111122 
DISL,ioos:station:DISL:PPTA:1,2013-12-06T13:00:00Z,30.2791,-87.5561,1.335,31.62,1111122 
DISL,ioos:station:DISL:PPTA:1,2013-12-06T13:30:00Z,30.2791,-87.5561,1.33,31.11,1111122 
DISL,ioos:station:DISL:PPTA:1,2013-12-06T14:00:00Z,30.2791,-87.5561,1.32,31.04,1111122 